Regional Weather Roundup
Issued by NWS

Home | Current Version | Previous Version | Graphics & Text | Print | Product List | Glossary On
Versions: 1 2 3 4 5 6 7 8 9 10 11 12 13 14 15 16 17 18 19 20 21 22 23 24 25 26 27 28 29 30 31 32 33 34 35 36 37 38 39 40 41 42 43 44 45 46 47 48 49 50
000
ASUS45 KTFX 021804
RWRMT
MONTANA HOURLY WEATHER ROUNDUP
NATIONAL WEATHER SERVICE GREAT FALLS MT
1204 PM MDT TUE SEP 2 2014

NOTE: "FAIR" INDICATES FEW OR NO CLOUDS BELOW 12000 FEET WITH NO
SIGNIFICANT WEATHER AND/OR OBSTRUCTIONS TO VISIBILITY.

* THESE STATIONS ARE NOT UNDER NWS QUALITY CONTROL. THEY DO NOT
   REPORT WEATHER SUCH AS PRECIPITATION OR FOG.

MTZ001>007-043-021900-
WEST OF THE DIVIDE
CITY           SKY/WX    TMP DP  RH WIND       PRES   REMARKS
KALISPELL      PTSUNNY   64  45  50 S8        29.83F
MISSOULA       SUNNY     64  41  43 CALM      29.89F
BUTTE          SUNNY     64  30  28 S10G17    29.97F
MULLAN PASS    PTSUNNY   54  43  67 VRB5      29.95S
* LINCOLN      N/A       63  40  43 W6G13      N/A
* LOOKOUT PASS N/A       58  43  58 N4G9       N/A
* POLSON       N/A       67  45  45 S4         N/A
* RONAN APT    PTSUNNY   70  41  35 E5         N/A
* SEELEY LAKE  N/A       64  40  41 W3G8       N/A
* THOMP F APT  PTCLDY    59  37  44 SE6G16     N/A
$$

MTZ008-052>055-021900-
SOUTHWEST MONTANA
CITY           SKY/WX    TMP DP  RH WIND       PRES   REMARKS
BOZEMAN        SUNNY     64  39  40 CALM      29.94F
DILLON         SUNNY     68  37  32 SW12      29.96F
W YELLOWSTONE  SUNNY     59  36  42 SW17G28   30.09F
* THREE FORKS  SUNNY     66  66 100 N/A        N/A
* BOULDER HILL N/A       62  34  35 SW10G15    N/A
* MONIDA PASS  N/A       56  37  49 SE20       N/A
* RAYNOLDS PAS N/A       60  39  46 SE14G25    N/A
* WHITEHALL    N/A       68  45  44 SW5G11     N/A
* WISE RIVER   N/A       59  42  53 E4         N/A
$$

MTZ009>010-012-014-046-048-049-054-021900-
EAST SLOPES AND CENTRAL MONTANA
CITY           SKY/WX    TMP DP  RH WIND       PRES   REMARKS
CUT BANK       PTSUNNY   63  39  41 SW14      29.81F
GREAT FALLS    CLOUDY    66  39  37 SW15G21   29.84F
HELENA         PTCLDY    66  43  43 CALM      29.89F
MALMSTROM AFB  CLOUDY    66  39  37 SW17      29.86F
* CONRAD       CLOUDY    66  39  37 S10G18     N/A
* EAST GLACIER N/A       62  37  40 N13        N/A
* MONARCH      N/A       60  30  32 SW17G26    N/A
* PENDROY      N/A       60  38  44 SW4G9      N/A
* ROGERS PASS  N/A       58  36  44 SE17G29    N/A
* SAINT MARY   N/A       61  39  44 S10G21     N/A
* SWEET GRASS  N/A       63  37  38 W14G22     N/A
$$

MTZ011-013-016-021-035-040-045-047-050-051-021900-
NORTH CENTRAL MONTANA
CITY           SKY/WX    TMP DP  RH WIND       PRES   REMARKS
HAVRE          PTSUNNY   70  41  35 SW14      29.80F
LEWISTOWN      PTSUNNY   66  39  37 VRB5      29.89F
* CHESTER      N/A       64  39  40 W7G15      N/A
* DENTON       N/A       66  39  37 W14G19     N/A
* GEYSER       N/A       66  37  34 W13G20     N/A
* JUDITH GAP   N/A       66  39  37 SW17G22    N/A
* LOMA         N/A       67  41  39 S9         N/A
$$

MTZ017>020-022>027-061-062-021900-
NORTHEAST MONTANA
CITY           SKY/WX    TMP DP  RH WIND       PRES   REMARKS
GLASGOW        CLOUDY    66  46  49 NW8       29.81F
GLENDIVE       PTCLDY    72  45  38 W17G23    29.85S
JORDAN         CLOUDY    70  39  32 W9        29.85F
SIDNEY         PTCLDY    72  46  40 W10G18    29.82R
WOLF POINT     PTSUNNY   70  48  46 SW9       29.81F
* CIRCLE       N/A       67  44  44 SW9G14     N/A
* LINDSAY DVD  N/A       69  42  38 W15G24     N/A
* NAVAJO       N/A       67  43  42 NW12G17    N/A
* SACO         N/A       66  44  45 W6         N/A
$$

MTZ028>042-056>058-021900-
SOUTHCENTRAL AND SOUTHEAST MONTANA
CITY           SKY/WX    TMP DP  RH WIND       PRES   REMARKS
BAKER          PTCLDY    70  45  41 NW13      29.88F
BILLINGS       PTSUNNY   70  41  35 S6        29.90F
LIVINGSTON     SUNNY     73  37  27 W13G35    29.90F
MILES CITY     PTCLDY    72  39  30 W10       29.87F
* LAUREL APT   PTCLDY    70  41  35 N/A        N/A
* ROUNDUP APT  PTCLDY    68  41  38 N/A        N/A
* ALZADA       N/A       74  42  32 W6G12      N/A
* HYSHAM       N/A       69  36  30 W6         N/A
* LAME DEER    N/A       66  40  39 NW9G14     N/A
* REED POINT   N/A       73  40  30 SE2G8      N/A
* ROSCOE HILL  N/A       65  34  32 NE10G15    N/A
$$

REGIONAL REPORTS...DAKOTAS
CITY           SKY/WX    TMP DP  RH WIND       PRES   REMARKS
WILLISTON      SUNNY     72  45  38 NW15G23   29.78R
DICKINSON      SUNNY     72  46  40 W13G23    29.82F
BEACH          N/A       68  45  44 W16       29.86S
CROSBY         SUNNY     72  46  40 NW13G20   29.75R
TIOGA          SUNNY     70  45  41 W15G21    29.80R
WATFORD CITY   SUNNY     72  45  38 W17G24    29.77F
BISMARCK       PTCLDY    75  54  48 VRB3      29.80S
GRAND FORKS    PTCLDY    66  55  68 S16       29.75R
FARGO          PTCLDY    75  54  48 N/A       29.80F
BUFFALO SD     PTCLDY    73  46  38 NW15      29.81F
RAPID CITY     SUNNY     77  48  36 S10       29.91F
$$

REGIONAL REPORTS...WYOMING/IDAHO/WASHINGTON
CITY           SKY/WX    TMP DP  RH WIND       PRES   REMARKS
GILLETTE       PTCLDY    73  37  27 VRB7      29.94F
SHERIDAN       PTCLDY    70  41  35 VRB3      29.93F
CODY           PTCLDY   N/A N/A N/A N/A        N/A
YELLOWSTONE LA SUNNY     57  32  39 VRB5G22   30.17F
SALMON         SUNNY     61  43  52 N5        29.94F
MULLAN PASS    PTSUNNY   54  43  67 VRB5      29.95S
SAND POINT     PTSUNNY   66  45  47 SW7       29.83F
SPOKANE        PTCLDY    66  43  43 S17       29.83F

$$



USA.gov is the U.S. government's official web portal to all federal, state and local government web resources and services.